[[{"header":{"parameterUnit":"m.s-1","parameterCategory":1,"la1":30.2991,"la2":30.254,"lo1":-89.0895,"lo2":-89.0444,"dy":0.0017,"dx":0.0017,"nx":28,"ny":28,"refTime":"2025-04-06T03:00:00:Z","depth":0,"parameterNumber":2,"parameterNumberName":"U-component_of_WINDS"},"data":[0,0,0,0,0,0,0,0,0,0,0,0,0,0,0,0,0,0,0,0,0,0,0,0,0,0,0,0,0,0,0,0,0,0,0,0,0,0,0,0,0,0,0,0,0,0,0,0,0,0,0,0,0,0,0,0,0,0,0.9641,0.9641,0,0.9549,0.9548,0.9547,0.9475,0.9474,0.9473,0.9473,0.9379,0.9377,0.9375,0,0,0,0,0,0,0,0,0,0,0,0,0,0.976,0.9758,0.9642,0.964,0.9639,0.9549,0.9548,0.9546,0.9475,0.9474,0.9473,0.9472,0.9379,0.9377,0.9375,0,0,0,0,0,0,0,0,0,0,0,0,0,0.9692,0.9758,0.9642,0.9593,0.9587,0.9549,0.9548,0.9546,0.9475,0.9474,0.9473,0.9472,0.938,0.9377,0.9375,0.9378,0,0,0.9366,0.9365,0,0,0,0,0,0,0,0,0.9696,0.9688,0.9601,0.9596,0.959,0.9522,0.9555,0.949,0.9475,0.9518,0.9473,0.9471,0.9427,0.9421,0.9406,0.9374,0.937,0.9366,0.9364,0.9363,0.9362,0,0,0,0,0,0,0,0.9701,0.9692,0.9605,0.96,0.9593,0.9576,0.9566,0.9542,0.948,0.9514,0.9508,0.9498,0.9424,0.9408,0.9403,0.9368,0.9366,0.9363,0.9362,0.9361,0.934,0.9341,0,0,0,0,0,0,0.9713,0.9696,0.9608,0.9602,0.9642,0.9575,0.9563,0.9545,0.948,0.9469,0.9499,0.9495,0.9414,0.9406,0.9399,0.9402,0.9363,0.936,0.9359,0.9339,0.934,0.9341,0,0,0,0,0,0,0.9716,0.9706,0.9612,0.9648,0.9634,0.9574,0.9555,0.9544,0.9528,0.9469,0.9457,0.9495,0.9413,0.9403,0.9385,0.9397,0.9359,0.9357,0.9337,0.9339,0.9341,0.9406,0,0,0,0,0,0,0.972,0.9707,0.9707,0.9648,0.9633,0.9598,0.9555,0.9543,0.9523,0.9517,0.9461,0.9451,0.9411,0.939,0.9382,0.9393,0.9354,0.9336,0.9338,0.934,0.9402,0.9409,0.9415,0,0,0,0,0,0.9724,0.9728,0.9707,0.9697,0.9631,0.9598,0.959,0.9543,0.9524,0.9524,0.9487,0.9453,0.9398,0.9388,0.9379,0.939,0.9335,0.9337,0.934,0.9399,0.9408,0.9415,0,0,0,0,0,0,0.9789,0.9719,0.9695,0.968,0.9646,0.9586,0.9584,0.9554,0.9524,0.952,0.9464,0.9452,0.9441,0.9413,0.9404,0.9392,0.9362,0.9363,0.941,0.9418,0.9425,0.9432,0.9352,0,0,0,0,0,0.9802,0.978,0.9721,0.9714,0.9698,0.9645,0.9629,0.9597,0.9559,0.9544,0.9505,0.947,0.9446,0.943,0.9404,0.9398,0.9387,0.9401,0.9408,0.9414,0.9415,0.9414,0.9421,0.9349,0.9349,0.9349,0,0,0.9827,0.9786,0.9776,0.9726,0.9695,0.9676,0.9633,0.9613,0.9599,0.9541,0.9522,0.9493,0.9451,0.944,0.9433,0.9417,0.9433,0.9417,0.9422,0.942,0.9417,0.9424,0.943,0.9351,0.9351,0.9351,0,0,0.9864,0.983,0.9822,0.9794,0.9749,0.9714,0.9713,0.9658,0.9637,0.9617,0.9574,0.9558,0.9515,0.9488,0.9469,0.9501,0.947,0.9494,0.9529,0.9529,0.9534,0.9539,0.9553,0.9559,0.9496,0.9496,0.9496,0,0.9901,0.987,0.9822,0.9806,0.9787,0.9734,0.9727,0.9702,0.9651,0.9639,0.9622,0.957,0.9538,0.9522,0.953,0.9515,0.9514,0.95,0.9537,0.9542,0.9545,0.9558,0.9563,0.95,0.9499,0.9499,0.9498,0,0.992,0.9899,0.9898,0.9852,0.9832,0.9821,0.9773,0.9759,0.973,0.9698,0.9681,0.9641,0.9607,0.9601,0.9571,0.9582,0.9574,0.9548,0.9516,0.9557,0.9568,0.9572,0.9504,0.9503,0.9502,0.9501,0,0,0.9992,0.9922,0.9923,0.9903,0.9852,0.9835,0.9824,0.9791,0.9782,0.975,0.974,0.9708,0.9684,0.9663,0.963,0.963,0.9662,0.9604,0.9602,0.9618,0.9675,0.9696,0.9702,0.9641,0.9642,0.9642,0.9679,0,1.0022,0.9997,0.9955,0.9944,0.9927,0.9879,0.9869,0.9838,0.9809,0.9791,0.9759,0.9738,0.9708,0.9695,0.9693,0.9659,0.9673,0.9655,0.9633,0.9633,0.9646,0.9707,0.9728,0.9765,0.9683,0.9684,0.9684,0,1.0053,1.0025,1.0013,0.9967,0.9958,0.995,0.992,0.9902,0.9868,0.9847,0.9825,0.9791,0.9778,0.975,0.9734,0.9723,0.9712,0.9695,0.9695,0.9692,0.9661,0.9707,0.9775,0.9781,0.969,0.969,0.9689,0,1.011,1.0069,1.0058,1.0042,0.9988,0.9984,0.9961,0.9925,0.991,0.9884,0.9874,0.9846,0.9832,0.9812,0.9773,0.9756,0.9762,0.973,0.9746,0.9748,0.9749,0.975,0.9818,0.9741,0.9741,0.9741,0.974,0,1.0148,1.0143,1.0083,1.0076,1.007,1.0024,1.002,0.9993,0.9963,0.9951,0.9908,0.9899,0.9846,0.9832,0.9801,0.9794,0.9787,0.9771,0.9763,0.9776,0.9778,0.9768,0.9765,0.9742,0.9742,0.9741,0.9741,0,1.021,1.0169,1.0154,1.0105,1.0093,1.0091,1.005,1.0043,1.0013,0.9999,0.9994,0.9947,0.9927,0.9886,0.9855,0.9835,0.9836,0.9821,0.9848,0.9843,0.9863,0.9862,0.9927,0.9934,0.9852,0.9853,0.9853,0,1.0237,1.0232,1.0184,1.0174,1.0153,1.0137,1.0122,1.0077,1.0064,1.0027,1.0025,1.0002,0.9982,0.9954,0.9918,0.9895,0.988,0.9905,0.9876,0.989,0.9883,0.9884,0.9885,0.9911,0.9912,0.9913,0.9914,0,1.0291,1.0272,1.0252,1.0227,1.0211,1.0188,1.0163,1.0157,1.0108,1.0095,1.0076,1.006,1.003,1.001,0.9983,0.9961,0.993,0.9924,0.9926,0.9939,0.9956,0.995,0.9867,0.9922,0.9921,0.992,0.992,0.992,1.0337,1.0332,1.0299,1.028,1.0257,1.0236,1.0228,1.0198,1.0181,1.0154,1.0129,1.0113,1.0082,1.0043,1.0023,1.0011,0.9996,0.9999,1.0,1.0002,1.0009,0.9958,1.0006,1.0006,1.0005,1.0005,1.0005,0,1.039,1.0368,1.035,1.0318,1.0304,1.0277,1.025,1.024,1.0226,1.02,1.0182,1.0162,1.0143,1.0107,1.0086,1.0083,1.0069,1.0079,1.008,1.0076,1.0023,1.0023,1.0092,1.0092,1.0092,1.0091,1.0091,1.0091,1.0416,1.0408,1.0387,1.0368,1.0345,1.033,1.0317,1.0298,1.0278,1.0258,1.0242,1.0219,1.019,1.0167,1.015,1.014,1.0135,1.015,1.0136,1.0087,1.0079,1.0071,1.0071,1.0149,1.0149,1.019,1.019,1.0191]},{"header":{"parameterUnit":"m.s-1","parameterCategory":1,"la1":30.2991,"la2":30.254,"lo1":-89.0895,"lo2":-89.0444,"dy":0.0017,"dx":0.0017,"nx":28,"ny":28,"refTime":"2025-04-06T03:00:00:Z","depth":0,"parameterNumber":3,"parameterNumberName":"V-component_of_WINDS"},"data":[0,0,0,0,0,0,0,0,0,0,0,0,0,0,0,0,0,0,0,0,0,0,0,0,0,0,0,0,0,0,0,0,0,0,0,0,0,0,0,0,0,0,0,0,0,0,0,0,0,0,0,0,0,0,0,0,0,0,-6.7717,-6.7719,0,-6.7874,-6.7876,-6.7877,-6.784,-6.7837,-6.7834,-6.7831,-6.7984,-6.7991,-6.7998,0,0,0,0,0,0,0,0,0,0,0,0,0,-6.7378,-6.7384,-6.7717,-6.7719,-6.7721,-6.7874,-6.7876,-6.7878,-6.7841,-6.7837,-6.7833,-6.783,-6.7982,-6.799,-6.7999,0,0,0,0,0,0,0,0,0,0,0,0,0,-6.7529,-6.7386,-6.7717,-6.7721,-6.7723,-6.7873,-6.7876,-6.7878,-6.7842,-6.7837,-6.7833,-6.7828,-6.798,-6.799,-6.8,-6.8153,0,0,-6.8031,-6.8036,0,0,0,0,0,0,0,0,-6.752,-6.7541,-6.7719,-6.7721,-6.7724,-6.7833,-6.7812,-6.797,-6.7843,-6.7796,-6.7831,-6.7826,-6.7937,-6.7951,-6.799,-6.816,-6.8166,-6.8032,-6.8038,-6.8043,-6.8046,0,0,0,0,0,0,0,-6.751,-6.7534,-6.7779,-6.7721,-6.7724,-6.7712,-6.7729,-6.7842,-6.789,-6.78,-6.7798,-6.7817,-6.7938,-6.798,-6.7993,-6.8169,-6.8032,-6.8041,-6.8047,-6.8051,-6.8469,-6.8474,0,0,0,0,0,0,-6.7498,-6.7526,-6.7774,-6.7784,-6.7609,-6.7722,-6.7741,-6.7802,-6.7888,-6.7897,-6.7821,-6.7815,-6.7964,-6.7981,-6.7998,-6.8182,-6.8043,-6.8052,-6.8058,-6.8464,-6.847,-6.8476,0,0,0,0,0,0,-6.7491,-6.7521,-6.7768,-6.7654,-6.7685,-6.7733,-6.7802,-6.7808,-6.785,-6.7904,-6.7912,-6.7856,-6.7962,-6.7984,-6.8114,-6.8186,-6.8057,-6.8066,-6.8459,-6.8466,-6.8473,-6.855,0,0,0,0,0,0,-6.7482,-6.7519,-6.7579,-6.7656,-6.7691,-6.7884,-6.7807,-6.7814,-6.7869,-6.7862,-6.7939,-6.7947,-6.796,-6.8099,-6.8125,-6.8198,-6.8074,-6.8452,-6.8462,-6.8471,-6.8541,-6.8559,-6.8575,0,0,0,0,0,-6.747,-6.7594,-6.7583,-6.7613,-6.7768,-6.7888,-6.7908,-6.7922,-6.7875,-6.7935,-6.7969,-6.7945,-6.8175,-6.8113,-6.8141,-6.8219,-6.8448,-6.8459,-6.847,-6.8534,-6.8556,-6.8574,0,0,0,0,0,0,-6.7522,-6.7604,-6.7592,-6.7746,-6.7811,-6.7882,-6.7958,-6.7945,-6.8023,-6.8014,-6.8025,-6.8043,-6.8176,-6.821,-6.814,-6.837,-6.8304,-6.8321,-6.8343,-6.8364,-6.838,-6.8369,-6.8083,0,0,0,0,0,-6.7552,-6.7645,-6.771,-6.7839,-6.7873,-6.791,-6.7963,-6.7968,-6.8035,-6.8061,-6.8105,-6.8169,-6.8255,-6.8311,-6.8394,-6.8546,-6.8561,-6.8613,-6.863,-6.8643,-6.8658,-6.8738,-6.8761,-6.8512,-6.8512,-6.8512,0,0,-6.7613,-6.767,-6.7728,-6.7851,-6.7902,-6.7995,-6.7933,-6.8035,-6.8104,-6.8076,-6.8203,-6.8237,-6.8308,-6.845,-6.8514,-6.8483,-6.873,-6.8657,-6.8668,-6.8675,-6.8752,-6.8775,-6.8796,-6.852,-6.8518,-6.8517,0,0,-6.7774,-6.7827,-6.7939,-6.7992,-6.807,-6.8094,-6.8121,-6.8195,-6.8217,-6.8345,-6.8325,-6.8405,-6.8554,-6.8605,-6.8651,-6.8829,-6.8808,-6.8855,-6.8941,-6.902,-6.9039,-6.9057,-6.9118,-6.914,-6.8869,-6.887,-6.887,0,-6.784,-6.7983,-6.7998,-6.8102,-6.8155,-6.8137,-6.8248,-6.8298,-6.8398,-6.8434,-6.8398,-6.8583,-6.863,-6.8782,-6.8826,-6.8864,-6.8892,-6.8846,-6.9036,-6.9053,-6.907,-6.9128,-6.9152,-6.8875,-6.8874,-6.8873,-6.8873,0,-6.8059,-6.8158,-6.8239,-6.8339,-6.8402,-6.8509,-6.8537,-6.8598,-6.8597,-6.8624,-6.8752,-6.8808,-6.89,-6.8937,-6.8937,-6.9089,-6.9066,-6.9033,-6.8966,-6.9098,-6.9154,-6.9176,-6.8882,-6.888,-6.8878,-6.8877,0,0,-6.8257,-6.8364,-6.8393,-6.8437,-6.8522,-6.8597,-6.8702,-6.8795,-6.8846,-6.8915,-6.9002,-6.9128,-6.9097,-6.9148,-6.9153,-6.9222,-6.9357,-6.918,-6.9182,-6.9209,-6.9525,-6.9549,-6.9575,-6.9344,-6.9349,-6.9352,-6.9518,0,-6.8424,-6.8613,-6.8628,-6.8796,-6.8886,-6.8869,-6.896,-6.902,-6.9047,-6.9125,-6.9153,-6.9242,-6.9196,-6.9227,-6.9294,-6.9327,-6.942,-6.9315,-6.9422,-6.9425,-6.9404,-6.9604,-6.963,-6.9785,-6.954,-6.9544,-6.9547,0,-6.8644,-6.8722,-6.89,-6.8971,-6.9009,-6.9091,-6.9176,-6.9252,-6.9318,-6.9332,-6.939,-6.9385,-6.9489,-6.942,-6.9562,-6.949,-6.9534,-6.9556,-6.9562,-6.9572,-6.9493,-6.9617,-6.9834,-6.9857,-6.9581,-6.9578,-6.9576,0,-6.8769,-6.8918,-6.9043,-6.9082,-6.9168,-6.9225,-6.9263,-6.9325,-6.9379,-6.9452,-6.9487,-6.9571,-6.9616,-6.9679,-6.9695,-6.9644,-6.9837,-6.9769,-6.9849,-6.9849,-6.989,-6.9887,-7.0115,-6.9921,-6.9921,-6.992,-6.992,0,-6.8953,-6.9062,-6.91,-6.9177,-6.9298,-6.9313,-6.9431,-6.9465,-6.952,-6.96,-6.959,-6.9665,-6.9683,-6.976,-6.9773,-6.9888,-6.9908,-6.9921,-6.9923,-6.9921,-6.992,-6.995,-6.9939,-6.9926,-6.9925,-6.9924,-6.9923,0,-6.9113,-6.9143,-6.9278,-6.9349,-6.9369,-6.9454,-6.9513,-6.9585,-6.961,-6.9712,-6.9737,-6.9776,-6.9867,-6.9889,-6.9997,-7.0006,-7.014,-7.0133,-7.0119,-7.0118,-7.0196,-7.0188,-7.0451,-7.0485,-7.027,-7.0272,-7.0273,0,-6.9228,-6.9312,-6.9391,-6.9446,-6.9487,-6.9574,-6.963,-6.9647,-6.9704,-6.9785,-6.9847,-6.9937,-7.001,-7.0155,-7.019,-7.0272,-7.0265,-7.0352,-7.0277,-7.0272,-7.0264,-7.0258,-7.0265,-7.0365,-7.0368,-7.037,-7.0371,0,-6.9428,-6.9439,-6.9521,-6.9608,-6.9674,-6.9743,-6.9808,-6.9852,-6.9878,-6.9943,-7.0037,-7.0093,-7.0204,-7.0292,-7.0374,-7.0409,-7.0393,-7.0394,-7.0417,-7.0416,-7.0404,-7.0409,-7.0156,-7.0388,-7.0386,-7.0385,-7.0384,-7.0384,-6.9568,-6.9641,-6.9708,-6.9799,-6.985,-6.9911,-6.9982,-7.0017,-7.0096,-7.0189,-7.0193,-7.0295,-7.0355,-7.0464,-7.0504,-7.0581,-7.0555,-7.0588,-7.0596,-7.0603,-7.0609,-7.0393,-7.0596,-7.0596,-7.0595,-7.0595,-7.0595,0,-6.9766,-6.9809,-6.9892,-6.9985,-7.0055,-7.0037,-7.0108,-7.0167,-7.0257,-7.0317,-7.0389,-7.0495,-7.058,-7.0623,-7.0706,-7.0759,-7.0754,-7.078,-7.0776,-7.0783,-7.063,-7.0601,-7.0783,-7.0783,-7.0783,-7.0783,-7.0783,-7.0783,-6.9878,-7.0,-7.0018,-7.0163,-7.0204,-7.0305,-7.0347,-7.0402,-7.0449,-7.0569,-7.0641,-7.0669,-7.072,-7.0807,-7.0883,-7.0893,-7.0923,-7.0952,-7.0958,-7.0814,-7.0794,-7.0776,-7.0749,-7.0959,-7.096,-7.1106,-7.1107,-7.1108]}]]